Location: Bratislava
(48.1500°N, 17.1170°E)
Time: 07:08:29
(UTC+02:00)

Vanguard 1 Rocket - All Passes

Search period start: 08 June 2026 00:00
Search period end: 18 June 2026 00:00
Orbit: 656 x 4211 km, 34.3° (Epoch: 7 June)

Date Brightness Start Highest point End Pass type
(mag) Time Alt. Az. Time Alt. Az. Time Alt. Az.
8 Jun - 10:04:47 10° SSW 10:06:37 12° SSE 10:08:22 10° SE daylight
8 Jun - 12:27:41 10° SW 12:30:23 16° S 12:33:22 10° SE daylight
9 Jun - 11:16:00 10° SW 11:18:38 15° S 11:21:18 10° SE daylight
9 Jun - 13:40:41 10° SSW 13:42:30 12° S 13:44:30 10° S daylight
10 Jun - 10:04:13 10° SSW 10:06:53 14° S 10:09:20 10° SE daylight
10 Jun - 12:28:24 10° SW 12:30:40 14° S 12:33:06 10° SSE daylight
11 Jun - 08:52:27 10° SSW 08:55:03 13° S 08:57:19 10° SE daylight
11 Jun - 11:16:15 10° SW 11:18:55 15° S 11:21:32 10° SSE daylight
12 Jun - 07:41:07 10° S 07:43:00 11° SSE 07:44:43 10° SSE daylight
12 Jun - 10:03:58 10° SW 10:07:11 16° S 10:10:00 10° SE daylight
12 Jun - 12:29:29 10° SSW 12:30:55 11° SSW 12:32:24 10° S daylight
13 Jun - 08:51:32 10° SSW 08:55:21 16° S 08:58:27 10° SE daylight
13 Jun - 11:16:37 10° SW 11:19:11 14° S 11:21:38 10° SSE daylight
14 Jun - 07:39:04 10° SSW 07:43:20 15° S 07:46:40 10° SE daylight
14 Jun - 10:03:54 10° SW 10:07:28 17° S 10:10:30 10° SE daylight
15 Jun - 06:26:57 10° S 06:31:03 13° SSE 06:34:21 10° SE daylight
15 Jun - 08:50:59 10° SW 08:55:39 19° S 08:59:14 10° SE daylight
15 Jun - 11:17:10 10° SW 11:19:25 13° SSW 11:21:32 10° SSE daylight
16 Jun - 05:16:36 10° SSE 05:18:29 11° SSE 05:20:13 10° SSE daylight
16 Jun - 07:37:53 10° SW 07:43:38 20° S 07:47:47 10° SE daylight
16 Jun - 10:03:56 10° SW 10:07:43 18° S 10:10:52 10° SSE daylight
17 Jun - 06:24:49 10° SSW 06:31:21 18° SSE 06:36:01 10° SE daylight
17 Jun - 08:50:37 10° SW 08:55:56 22° S 08:59:51 10° SE daylight
17 Jun - 11:18:03 10° SW 11:19:35 11° SSW 11:21:03 10° S daylight
